Regional Weather Roundup
Issued by NWS

Home | Current Version | Previous Version | Graphics & Text | Print | Product List | Glossary On
Versions: 1 2 3 4 5 6 7 8 9 10 11 12 13 14 15 16 17 18 19 20 21 22 23 24 25 26 27 28 29 30 31 32 33 34 35 36 37 38 39 40 41 42 43 44 45 46 47 48 49 50
569
ASUS43 KLOT 181908
RWRIL

ILLINOIS REGIONAL WEATHER ROUNDUP
NATIONAL WEATHER SERVICE CHICAGO/ROMEOVILLE IL
100 PM CST SUN FEB 18 2018

NOTE: "FAIR" INDICATES FEW OR NO CLOUDS BELOW 12,000 FEET WITH NO
SIGNIFICANT WEATHER AND/OR OBSTRUCTIONS TO VISIBILITY.

* THESE STATIONS ARE NOT UNDER NWS QUALITY CONTROL. THEY ALSO MAY NOT
  REPORT WEATHER SUCH AS PRECIPITATION OR FOG.

ILZ001-002-007-009-015-016-024-182000-
NORTHWEST ILLINOIS

CITY           SKY/WX    TMP DP  RH WIND       PRES   REMARKS
MOLINE         FAIR      39  30  70 S20G26    30.02F WCI  29
STERLING*      FAIR      35  28  75 SE13G21   30.07F WCI  26
SAVANNA*       FAIR      34  30  87 SE16      30.05F WCI  23
$$

ILZ003-004-008-010-011-017-018-182000-
NORTH CENTRAL ILLINOIS

CITY           SKY/WX    TMP DP  RH WIND       PRES   REMARKS
ROCKFORD       CLOUDY    28  24  85 SE13      30.13F WCI  17
FREEPORT*      FAIR      31  28  88 S14G24    30.08F WCI  21
ROCHELLE*      FAIR      29  28  99 S15       30.12F WCI  17
DE KALB*       FAIR      28  28  97 SE15      30.14F WCI  17
PERU*          FAIR      33  29  86 SE17      30.12F WCI  22
$$

ILZ005-006-012>014-019>023-182000-
NORTHEAST ILLINOIS

CITY           SKY/WX    TMP DP  RH WIND       PRES   REMARKS
CHICAGO-OHARE  PTSUNNY   33  25  72 S13       30.16F WCI  24
CHICAGO-MIDWAY PTSUNNY   34  27  75 S13       30.18F WCI  25
AURORA         FAIR      30  27  88 SE15      30.14F FOG     WCI  19
LANSING*       FAIR      32  28  85 S13       30.21F WCI  23
JOLIET*        FAIR      34  29  82 SE12      30.17F WCI  26
WAUKEGAN       FAIR      36  25  64 S16       30.15F WCI  26
DUPAGE AIRPORT FAIR      31  27  85 S12       30.15F FOG     WCI  22
KANKAKEE*      FAIR      34  29  83 SE12      30.20F WCI  25
WHEELING       FAIR      34  26  72 S13       30.18F WCI  25
MORRIS*        FAIR      32  30  94 SE18      30.15F WCI  20
ROMEOVILLE*    FAIR      31  28  86 S16       30.16F WCI  20
NORTHERLY ISL    N/A     33  26  76 S10         N/A  WCI  25
$$

LMZ740>746-182000-
SOUTHERN LAKE MICHIGAN

STATION/POSITION SKY/WX   TEMP    WIND        PRES    VSBY  WAVE
                          AIR SEA DIR/SP/G                  HT/PER
                          (F)     (DEG/KT/KT) (MB)    (MI)  (FT/S)
HARRISON CRIB              31     160/ 17/ 19   N/A
BURNHAM HARBOR             33     160/  8/ 14   N/A
CALUMET HARBOR             32     160/ 10/ 15 1022.0F
BURNS HARBOR               32     170/ 14/ 19 1024.0F
MICHIGAN CITY              29     150/ 16/ 22   N/A
$$

ILZ025>027-034>036-040-047-049-050-058-095>099-182000-
WEST-CENTRAL ILLINOIS

CITY           SKY/WX    TMP DP  RH WIND       PRES   REMARKS
QUINCY         CLOUDY    48  29  47 S16G26    30.03F
GALESBURG*     FAIR      42  34  73 SE13G18   30.05F
MACOMB*        CLOUDY    44  33  67 S22       30.08F
JACKSONVILLE*  MOSUNNY   47  30  51 S14G26    30.10F
PITTSFIELD*    MOSUNNY   48  30  49 S15       30.08F
$$

ILZ028>032-037-038-041>044-048-051>054-059>061-182000-
CENTRAL ILLINOIS

CITY           SKY/WX    TMP DP  RH WIND       PRES   REMARKS
PONTIAC        FAIR      37  34  89 S17G24    30.15F WCI  27
BLOOMINGTON    FAIR      41  35  79 SE21      30.13F
DECATUR        FAIR      45  32  60 S18       30.16F
PEORIA         FAIR      42  34  73 S15       30.10F
LACON*         FAIR      37  30  76 SE13      30.10F WCI  29
LINCOLN*       FAIR      44  34  67 S17G25    30.13F
SPRINGFIELD    FAIR      47  32  56 S20G26    30.13F
TAYLORVILLE    FAIR      46  33  59 S17G24    30.13F
$$

ILZ033-039-045-046-055>057-062-063-182000-
EAST-CENTRAL ILLINOIS

CITY           SKY/WX    TMP DP  RH WIND       PRES   REMARKS
CHAMPAIGN      FAIR      43  34  70 SE17      30.17F
DANVILLE*      FAIR      40  33  76 SE10      30.18F
RANTOUL*       FAIR      42  34  74 S16       30.18F
MATTOON        FAIR      45  31  58 S13       30.17F
PARIS*         FAIR      44  34  69 SE13G18   30.21F
$$

ILZ079-100>102-182000-
SOUTHWEST ILLINOIS

CITY           SKY/WX    TMP DP  RH WIND       PRES   REMARKS
ALTON          PTSUNNY   48  32  53 SE16      30.14F
BELLEVILLE     FAIR      51  32  49 S15       30.13F
CAHOKIA*       FAIR      50  29  44 S16       30.13F
SPARTA*        FAIR      50  34  54 SE12      30.18F
$$

ILZ064>066-069>071-074>076-080>082-084>086-088>090-092>094-182000-
SOUTH-CENTRAL ILLINOIS

CITY           SKY/WX    TMP DP  RH WIND       PRES   REMARKS
CARBONDALE     FAIR      51  32  48 SE17      30.18F
CAIRO*         FAIR      50  36  57 SE12      30.20F
EFFINGHAM*     FAIR      47  34  60 SE13G20   30.21F
MARION         PTSUNNY   50  30  46 SE14      30.20F
MT. VERNON     FAIR      49  34  56 SE13      30.19
CENTRALIA*     FAIR      50  35  56 SE10G16   30.17F
SALEM*         FAIR      49  32  52 S10       30.19F
METROPOLIS*    FAIR      51  36  57 SE6       30.21F
$$

ILZ067-068-072-073-078-083-087-091-182000-
SOUTHEAST ILLINOIS

CITY           SKY/WX    TMP DP  RH WIND       PRES   REMARKS
LAWRENCEVILLE  FAIR      48  33  56 S14       30.23F
FLORA*         FAIR      49  36  60 S12       30.22F
FAIRFIELD*     FAIR      49  36  60 SE8       30.20F
HARRISBURG*    FAIR      51  35  53 SE12      30.22F
ROBINSON*      FAIR      46  35  64 S10       30.23F
CARMI*         FAIR      49  36  59 SE14      30.22F
$$

ABBREVIATIONS USED IN REMARKS
   TC - TEMPERATURE IN CELSIUS
  WCI - WIND CHILL INDEX
   HX - HEAT INDEX
  VSB - VISIBILITY
$$





USA.gov is the U.S. government's official web portal to all federal, state and local government web resources and services.